Flag for U.S.A. Weather past 2 weeks in Vallejo, California, U.S.A.

Now
60 °F

Scattered clouds.


Feels Like: 60 °F
Forecast: 48 / 65 °F
Wind: 14 mph from Southwest

Location: Napa County Airport

Current Time: May 3, 2015 at 1:57:17 PM

Latest Report: May 3, 2015 at 12:54 PM


Visibility: 10 mi

Pressure: 29.87 "Hg

Humidity: 72%

Dew point: 51 °F

Location of VallejoLocation

Historic Weather in Vallejo — Graph

°F

Vallejo temperature yesterday

Maximum temperature yesterday: 67 °F (at 1:54 PM)
Minimum temperature yesterday: 50 °F (at 1:54 AM)
Average temperature yesterday: 56 °F

Past Weeks' High & Low Weather Summary

 TemperatureHumidityPressure
High87 °F (Apr 30, 2:54 PM)100% (Apr 19, 3:54 AM)30.12 "Hg (Apr 19, 3:54 AM)
Low41 °F (Apr 26, 5:54 AM)23% (Apr 30, 2:54 PM)29.74 "Hg (Apr 30, 6:54 PM)
Average57 °F77%29.89 "Hg
* Reported Apr 18 11:54 AM — May 3 11:54 AM, Vallejo, Weather by CustomWeather, © 2015

Note: Actual official high and low records may vary slightly from our data, if they occured in-between our weather recording intervals... More about our weather records

Advertising

Vallejo weather history for previous 24 hours

 ConditionsComfort  
Time TempWeatherWind HumidityBarometerVisibility
11:54 AM
Sun, May 3
57 °FOvercast.7 mph74%29.89 "Hg10 mi
10:54 AM54 °FOvercast.8 mph80%29.88 "Hg10 mi
9:54 AM52 °FOvercast.6 mph86%29.87 "Hg10 mi
8:54 AM50 °FLow clouds.6 mph89%29.86 "Hg10 mi
7:54 AM50 °FLow clouds.10 mph89%29.85 "Hg7 mi
6:54 AM50 °FMostly cloudy.9 mph89%29.84 "Hg8 mi
5:54 AM50 °FOvercast.9 mph89%29.83 "Hg10 mi
4:54 AM50 °FLow clouds.10 mph89%29.83 "Hg10 mi
3:54 AM50 °FLow clouds.9 mph89%29.83 "Hg10 mi
2:54 AM50 °FOvercast.12 mph93%29.83 "Hg10 mi
1:54 AM50 °FMostly cloudy.9 mph93%29.84 "Hg10 mi
12:54 AM50 °FPassing clouds.10 mph89%29.85 "Hg10 mi
11:54 PM
Sat, May 2
50 °FClear.10 mph93%29.85 "Hg10 mi
10:54 PM50 °FClear.10 mph93%29.85 "Hg10 mi
9:54 PM51 °FClear.12 mph89%29.84 "Hg10 mi
8:54 PM53 °FSunny.7 mph86%29.81 "Hg10 mi
7:54 PM58 °FSunny.8 mph81%29.79 "Hg10 mi
6:54 PM61 °FPassing clouds.14 mph72%29.78 "Hg10 mi
5:54 PM63 °FSunny.15 mph68%29.79 "Hg10 mi
4:54 PM65 °FSunny.17 mph63%29.78 "Hg10 mi
3:54 PM67 °FSunny.16 mph61%29.80 "Hg10 mi
2:54 PM67 °FSunny.15 mph61%29.81 "Hg10 mi
1:54 PM67 °FSunny.13 mph61%29.83 "Hg10 mi
Weather by CustomWeather, © 2015

See weather overviewHow to use our weather pages